MST,Max TemperatureF,Mean TemperatureF,Min TemperatureF,Max Dew PointF,MeanDew PointF,Min DewpointF,Max Humidity, Mean Humidity, Min Humidity, Max Sea Level PressureIn, Mean Sea Level PressureIn, Min Sea Level PressureIn, Max VisibilityMiles, Mean VisibilityMiles, Min VisibilityMiles, Max Wind SpeedMPH, Mean Wind SpeedMPH, Max Gust SpeedMPH,PrecipitationIn, CloudCover, Events, WindDirDegrees
2013-1-1,24,12,0,15,9,-3,88,75,62,30.60,30.44,30.37,10,9,5,12,3,13,0.00,5,,180
2013-1-2,15,2,-11,3,-4,-12,91,78,64,30.73,30.65,30.40,10,10,8,10,3,10,0.00,0,,166
2013-1-3,21,6,-10,9,-3,-13,87,73,59,30.65,30.57,30.45,10,10,6,7,2,8,0.00,0,,170
2013-1-4,23,10,-3,9,1,-8,83,68,52,30.54,30.46,30.39,10,10,8,12,4,12,0.00,0,,171
2013-1-5,24,13,1,11,4,-4,80,69,57,30.58,30.47,30.34,10,10,8,9,3,10,0.00,0,,159
2013-1-6,29,15,1,20,12,-3,87,77,67,30.31,30.18,30.09,10,10,5,10,3,12,0.00,5,,165
2013-1-7,39,29,18,25,20,14,81,70,59,30.11,29.97,29.77,10,10,10,18,5,23,0.00,4,,115
2013-1-8,44,39,33,26,21,18,69,57,44,30.07,29.99,29.83,10,10,10,28,13,36,0.00,5,,248
2013-1-9,46,36,26,26,22,18,69,57,45,30.11,29.92,29.65,10,10,10,16,5,20,0.00,0,,101
2013-1-10,41,27,13,32,18,5,92,70,48,29.83,29.59,29.48,10,4,0,25,10,31,0.11,8,Fog-Rain-Snow,297
2013-1-11,13,9,4,3,0,-3,86,76,66,30.32,29.97,29.70,10,4,0,18,6,21,0.03,8,Snow,304
2013-1-12,6,-3,-13,0,-6,-15,87,79,71,30.49,30.25,30.07,10,6,1,10,2,10,T,7,Snow,179
2013-1-13,7,3,-2,-1,-4,-7,87,78,69,30.51,30.43,30.16,10,8,4,6,2,7,T,8,Snow,123
2013-1-14,10,-2,-15,5,-4,-17,83,77,71,30.51,30.37,30.08,10,7,2,7,2,8,T,6,Snow,158
2013-1-15,23,16,8,16,11,5,84,79,73,30.54,30.49,30.44,10,9,5,8,2,9,T,6,Snow,158
2013-1-16,37,20,3,17,8,-1,88,64,40,30.63,30.55,30.32,10,10,5,12,3,14,0.00,0,,165
2013-1-17,24,12,0,12,6,-4,87,74,61,30.67,30.56,30.45,10,10,6,9,3,10,0.00,0,,147
2013-1-18,48,29,10,20,14,7,84,55,26,30.39,30.25,30.07,10,10,10,20,6,26,0.00,0,,146
2013-1-19,33,22,10,20,12,4,77,63,49,30.45,30.37,30.26,10,10,8,9,2,10,0.00,0,,170
2013-1-20,28,21,13,17,14,10,80,73,65,30.54,30.45,30.30,10,10,5,15,5,18,0.00,3,,185
2013-1-21,33,20,6,19,10,2,88,71,53,30.43,30.35,30.26,10,10,6,8,3,10,0.00,0,,167
2013-1-22,29,15,0,14,8,-3,87,69,50,30.42,30.33,30.27,10,10,8,6,4,7,0.00,0,,160
2013-1-23,33,25,16,23,17,12,78,71,63,30.28,30.18,30.03,10,10,8,9,2,12,0.00,1,,166
2013-1-24,47,36,24,28,23,17,81,56,31,30.19,30.07,29.97,10,10,10,23,6,29,0.00,4,,239
2013-1-25,38,31,23,29,26,20,84,74,63,30.22,30.14,30.02,10,10,10,8,2,9,0.00,7,,153
2013-1-26,42,35,28,31,29,25,85,78,70,29.98,29.86,29.74,10,10,10,12,3,14,0.00,4,,156
2013-1-27,34,26,18,29,25,14,92,81,69,29.96,29.84,29.78,10,4,1,9,4,12,0.09,8,Snow,266
2013-1-28,27,20,13,14,11,6,88,69,50,30.01,29.94,29.83,10,10,9,9,3,23,0.00,6,,138
2013-1-29,27,20,12,18,11,3,84,68,51,30.25,30.01,29.77,10,9,2,16,4,22,T,7,Snow,319
2013-1-30,38,26,13,28,21,6,85,70,54,30.16,30.03,29.90,10,7,1,29,7,33,0.01,8,Snow,277
2013-1-31,41,37,33,29,26,23,75,65,54,30.19,30.14,30.09,10,10,9,21,4,24,T,8,Snow,182